Regional Weather Roundup
Issued by NWS Pendleton, OR

Home | Current Version | Previous Version | Text Only | Print | Product List | Glossary On
Versions: 1 2 3 4 5 6 7 8 9 10 11 12 13 14 15 16 17 18 19 20 21 22 23 24 25 26 27 28 29 30 31 32 33 34 35 36 37 38 39 40 41 42 43 44 45 46 47 48 49 50
000
ASUS46 KPDT 202125
RWRPDT
PENDLETON REGIONAL WEATHER ROUNDUP
NATIONAL WEATHER SERVICE PENDLETON OREGON
200 PM PDT SUN APR 20 2014

NOTE: FAIR INDICATES FEW OR NO CLOUDS BELOW 12,000 FEET WITH NO
SIGNIFICANT WEATHER AND/OR OBSTRUCTIONS TO VISIBILITY.

# INDICATES UNOFFICIAL STATION AND DATA

WAZ520-202210-
EAST SLOPES OF WASHINGTON CASCADES

CITY            SKY/WX      TMP DP  RH  WIND    PRES   REMARKS
#BUMPING DAM    N/A         46  N/A N/A S2      N/A
#CLE ELUM HS    N/A         56  29  35  SE1     30.15F
#CLE ELUM 2NW   N/A         53  27  36  NE5     N/A
#CLE ELUM LAKE  N/A         51  32  48  W1      30.22F
#CLIFFDEL 2NW   N/A         55  27  34  CALM    N/A
#GLENWOOD       N/A         56  38  51  CALM    30.24F
#MANASTASH CYN  N/A         54  26  34  CALM    30.15F
#NELSON         N/A         55  33  43  S1      30.22F
#NELSON 3SW     N/A         50  34  54  CALM    30.43F
#NILE           N/A         58  30  34  CALM    29.52F
#RONALD 2NW     N/A         50  36  58  NW2     30.07F
#TEANAWAY 4NE   N/A         55  33  43  SW2     N/A
#TROUT LAKE HS  N/A         59  39  47  E6      N/A
#TROUT LAKE 1NE N/A         54  38  55  E5      30.24F
$$

WAZ521-202210-
SIMCOE HIGHLANDS

CITY            SKY/WX      TMP DP  RH  WIND    PRES   REMARKS
#BICKLETON HS   N/A         53  27  36  W12     30.21F
#CENTERVILLE 4W N/A         58  39  49  W3      29.98F
#CENTERVILLE 1SWN/A         55  36  49  SW1     30.20F
#GOLDENDALE 1NE N/A         56  29  35  CALM    N/A
#GOLDENDALE 1S  N/A         56  40  55  W1      28.38F
#GOLDENDALE 5WNWN/A         56  38  51  CALM    30.23F
#GOODNOE HILLS  N/A         63  37  38  N2      30.15F
#LYLE 6NE       N/A         55  41  59  SW3     30.21F
$$

WAZ026-202210-
KITTITAS VALLEY

CITY            SKY/WX      TMP DP  RH  WIND    PRES   REMARKS
ELLENSBURG AP   MOCLDY      61  25  25  SW5     30.20F
#ELLENSBURG CWU N/A         57  25  29  E7      30.16F
#ELLENSBURG 3NE N/A         55  27  34  SE5     30.19F
#ELLENSBURG     N/A         62  26  25  CALM    N/A
#ELLENSBURG 1E  N/A         63  26  24  CALM    N/A
#KITTITAS 4N    N/A         60  34  37  S3      30.38S
#KITTITAS 3S    N/A         57  30  35  SE6     30.20F
#THORP 6N       N/A         52  30  43  S5      30.25F
$$

WAZ027-202210-
YAKIMA VALLEY

CITY            SKY/WX      TMP DP  RH  WIND    PRES   REMARKS
YAKIMA AIRPORT  PTCLDY      62  31  31  SE7     30.21F
YAKIMA-VAGABOND PTCLDY      59  28  30  SW9     30.22F
#COWICHE 1N     N/A         59  37  44  S1      30.34F
#DONALD 2NE     N/A         67  22  18  CALM    30.52F
#GRANDVIEW      N/A         62  31  31  S1      30.22F
#MABTON         N/A         62  37  39  SE13    30.21F
#MOXEE 2E       N/A         59  14  17  S7      30.08F
#NACHES 2SW     N/A         58  35  42  SE6     30.24S
#OUTLOOK DOT    N/A         59  30  33  E9      N/A
#SELAH 8E       N/A         58  24  27  S8      N/A
#TERRACE HTS    N/A         59  34  39  CALM    30.19F
#TOPPENISH      N/A         60  36  41  E1      30.13F
#WAPATO 4NE     N/A         67  22  18  CALM    30.52F
#WEST VALLEY    N/A         57  32  38  CALM    30.23F
#W YAKIMA       N/A         59  33  37  SW2     30.21F
#WHITE SWAN 5E  N/A         60  36  41  NE3     30.21F
#WILEY CITY 3W  N/A         61  29  30  SE3     30.24F
$$

WAZ028-202210-
LOWER COLUMBIA BASIN...WASHINGTON

CITY            SKY/WX      TMP DP  RH  WIND    PRES   REMARKS
HANFORD         CLOUDY      64  27  24  SW8     30.24F
PASCO           PTCLDY      64  32  30  SW12    30.24F
PROSSER AWOS    N/A         63  34  34  SE8     30.24F
RICHLAND AWOS   PTCLDY      64  30  28  S10     30.24F
#BASIN CITY 5SW N/A         62  35  36  E7      30.23F
#BENTON CITY    N/A         62  33  34  SW7     30.14F
#CONNELL 5N     N/A         64  39  40  CALM    30.24F
#CONNELL 5NW    N/A         59  34  39  SW6     30.21F
#ELTOPIA        N/A         66  36  33  S3      30.20F
#ELTOPIA 6NW    N/A         59  36  42  W7      29.20F
#KENNEWICK 3S   N/A         63  35  35  NW2     30.24F
#PASCO-BROADMOORN/A         65  31  28  SW7     30.13F
#PATERSON       N/A         61  35  38  SW1     30.22F
#PROSSER        N/A         61  29  30  SW8     30.22F
#SAGEMOOR 2W    N/A         61  35  38  SW7     30.09F
#TOUCHET 2S     N/A         63  41  44  CALM    30.21F
#WEST PASCO     N/A         66  39  37  S5      30.25F
$$

WAZ029-202210-
FOOTHILLS OF THE BLUES...WASHINGTON

CITY            SKY/WX      TMP DP  RH  WIND    PRES   REMARKS
WALLA WALLA AP  PTCLDY      61  32  33  VRB6    30.25F
#COLLEGE PLACE  N/A         68  33  27  NW3     30.25F
#LOWDEN 2SE     N/A         64  38  38  NW2     30.20F
#PLEASANT VIEW 1N/A         60  32  35  S7      30.30S
#PRESCOTT       N/A         61  38  42  W1      30.24F
#SUDBURY        N/A         64  N/A N/A NW3     N/A
#WHITMAN COLLEGEN/A         60  34  37  CALM    30.28F
#WAITSBURG 8N   N/A         62  25  24  S3      30.06F
#WALLA WALLA 5E N/A         62  37  39  S14     N/A
#WHITMAN MISSIONN/A         63  37  38  CALM    30.24F
$$

WAZ030-202210-
BLUE MOUNTAINS...WASHINGTON

CITY            SKY/WX      TMP DP  RH  WIND    PRES   REMARKS
$$

ORZ009-041-WAZ024-202210-
COLUMBIA RIVER GORGE

CITY            SKY/WX      TMP DP  RH  WIND    PRES   REMARKS
HOOD RIVER AP   CLOUDY      61  37  41  N3      30.23F
THE DALLES AP   MOCLDY      62  37  39  CALM    30.23F
#ARLINGTON AIRPON/A         60  38  44  NW6     N/A
#ARLINGTON HS   N/A         62  35  36  W3      30.14F
#CELILO DOT     N/A         64  35  34  CALM    N/A
#MARYHILL 2W    N/A         61  40  46  E1      N/A
#MOSIER 1S      N/A         62  30  30  N9      30.27F
#MURDOCK        N/A         61  43  51  W3      30.25F
#RUFUS DOT      N/A         64  35  34  SW6     N/A

$$

ORZ510-202210-
NORTH CENTRAL OREGON

CITY            SKY/WX      TMP DP  RH  WIND    PRES   REMARKS
#CHENOWITH 1W   N/A         54  39  57  E1      N/A
#COW CYN RST AREN/A         57  -53  1  S7      N/A
#GRASS VALLEY   N/A         57  29  34  SW3     N/A
#GRASS VALLEY 1SN/A         61  35  38  W6      30.23F
#KENT DOT       N/A         59  22  24  S7      N/A
#MAUPIN SCHOOL  N/A         64  34  33  CALM    30.23F
#SHANIKO 5WSW   N/A         56  22  26  SE7     N/A
#SHANIKO 4NW    N/A         56  26  31  S5      30.20F
#TYGH VALLEY 2NEN/A         60  36  41  E1      30.20F
#WASCO DOT      N/A         60  37  42  N9      N/A
#WASCO 5NE      N/A         59  43  55  CALM    30.22F
$$

ORZ511-202210-
CENTRAL OREGON

CITY            SKY/WX      TMP DP  RH  WIND    PRES   REMARKS
BEND AIRPORT    PTCLDY      63  25  23  SW12    30.18F
MADRAS AIRPORT  MOCLDY      61  27  27  S5      30.21F
REDMOND AIRPORT PTCLDY      63  20  19  W7      30.19F
#BEND 6E        N/A         63  22  21  CALM    30.12F
#BEND 1SW       N/A         66   8  10  S2      N/A
#BEND-AWBREY    N/A         65  30  27  SE2     30.20F
#BEND-KIM LN    N/A         67  32  27  S7      30.15F
#CROOKED RVR RANN/A         65  29  26  W2      30.20F
#CULVER         N/A         63  27  25  S3      30.15F
#LAKE BILLY CHINN/A         61   2   9  NE5     30.19F
#POWELL BUTTE   N/A         67  36  32  N7      29.82F
#PRINEVILLE 3N  N/A         62  30  30  CALM    30.16F
#WARM SPRINGS   N/A         66  35  32  N3      30.15F


ORZ509-202210-
EAST SLOPES OF OREGON CASCADES

CITY            SKY/WX      TMP DP  RH  WIND    PRES   REMARKS
#BLUE BOX PASS  N/A         53  N/A N/A S3      N/A
#CAMP SHERMAN   N/A         65  29  26  S1      30.19F
#LA PINE DOT    N/A         64  17  16  W2      N/A
#LA PINE 4NW    N/A         61  29  30  CALM    30.28F
#LAVA BUTTE DOT N/A         63  27  25  SW3     N/A
#SISTERS AIRPOR N/A         61  36  39  N5      30.19F
#SISTERS ODOT   N/A         63  N/A N/A CALM    N/A
#SISTERS 3N     N/A         66  29  25  S2      30.22F
#SUNRIVER       N/A         64  27  24  SE3     30.11F
#SUNRIVER AP    N/A         59  27  29  SW2     30.20F
#SUTTLE LK DOT  N/A         57  30  35  CALM    N/A
#TUMALO 3W      N/A         59  30  33  N7      30.10F
#WANOGA BUTTE D N/A         51  24  34  W7      N/A

$$

ORZ044-202210-
LOWER COLUMBIA BASIN...OREGON

CITY            SKY/WX      TMP DP  RH  WIND    PRES   REMARKS
HERMISTON       PTCLDY      63  34  34  VRB3    30.22F
#BOARDMAN SCHOOLN/A         62  36  38  N1      30.22F
#BOARDMAN 3W    N/A         66  39  37  N7      29.94F
#BOARDMAN 8SW   N/A         63  37  38  W2      30.22F
#IONE SCHOOL    N/A         62  30  30  N2      30.19F
#IRRIGON 4NW    N/A         63  35  35  W7      N/A
#UMATILLA SCHOOLN/A         64  42  45  W7      30.27F
#UMATILLA       N/A         63  34  34  W5      30.21F
$$

ORZ507-202210-
NORTHERN FOOTHILLS OF THE BLUES

CITY            SKY/WX      TMP DP  RH  WIND    PRES   REMARKS
PENDLETON AIRPT PTCLDY      61  31  32  W7      30.22F
#ADAMS 3WNW     N/A         60  35  39  NW2     30.22F
#ATHENA         N/A         59  36  42  CALM    30.25F
#HELIX SCHOOL   N/A         60  31  33  SW5     30.23F
#HELIX 3N       N/A         56  30  37  NW1     30.19F
#M-F FERNDALE   N/A         67  35  30  CALM    30.23F
#M-F GROVE ELEM N/A         61  29  30  W3      30.22F
#M-FREEWATER 5SEN/A         63  38  39  CALM    30.22F
#PDT AQUATIC CTRN/A         64  36  35  W6      30.22F
#PENDLETON DNTN N/A         64  35  34  NW2     30.19F
#PDT SUNRIDGE   N/A         63  36  36  NW3     30.23F
#PILOT ROCK     N/A         61  33  35  CALM    30.22F
#TUTUILLA       N/A         59  31  34  W1      30.15F
#UMAPINE 2E     N/A         63  30  29  NW2     30.17F
#WESTON SCHOOL  N/A         58  31  36  N2      30.27F

$$

ORZ508-202210-
SOUTHERN FOOTHILLS OF THE BLUES

CITY            SKY/WX      TMP DP  RH  WIND    PRES   REMARKS
LEXINGTON       PTCLDY      64  32  30  N8      30.22F
#AJAX           N/A         59  33  37  W5      30.22F
#CONDON SCHOOL  N/A         57  28  33  SW5     30.16F
#CONDON 5W      N/A         56  27  33  SW6     30.18F
#FOSSIL SCHOOL  N/A         60  28  29  W5      30.16F
#HEPPNER 4NE    N/A         57  32  38  NW8     30.23F
#LEXINGTON 2SE  N/A         63  33  32  NW6     30.17F
#MIKKALO        N/A         63  33  32  N3      30.19F
#OLEX 4N        N/A         60  37  42  CALM    30.20F
#RUGGS 5NE      N/A         65  31  28  SW2     30.46R
#RUGGS 2SW      N/A         60  25  26  W8      30.27F

$$

ORZ502-503-202210-
BLUE MOUNTAINS

CITY            SKY/WX      TMP DP  RH  WIND    PRES   REMARKS
MEACHAM         PTCLDY      56  25  30  VRB6    30.22F
#BATTLE MTN DOT N/A         56  27  33  SE2     N/A
#HARDMAN 10S    N/A         52  26  36  S7      30.25F
#HEPPNER 15SE   N/A         57  26  30  W3      30.14F
#LADD CYN SMT   N/A         55  20  25  E8      N/A
#LADD CREEK ODOTN/A         60  31  33  SE2     N/A
#LONG CREEK HS  N/A         57  31  37  SW6     30.18F
#N POWDER DOT   N/A         60  33  36  W3      N/A
#TOLLGATE       N/A         48  27  44  SW1     30.16S
#TOLLGATE 9W    N/A         51  25  36  SE5     N/A
#TROY SCHOOL    N/A         63  31  30  N1      30.05F
#UKIAH          N/A         59  30  33  CALM    30.27F
#WESTON 4E      N/A         55  38  53  W1      30.20F
$$

ORZ505-202210-
JOHN DAY BASIN

CITY            SKY/WX      TMP DP  RH  WIND    PRES   REMARKS
JOHN DAY        SUNNY       61  28  28  W6      30.23S
#JOHN DAY KJDY  N/A         61  52  72  NW5     29.95S
#DAYVILLE SCHOOLN/A         63  27  25  N1      30.16F
#MONUMENT HS    N/A         63  33  32  SE2     30.15F
#MT. VERNON 5SE N/A         58  31  36  CALM    30.18F
$$

ORZ506-202210-
OCHOCO AND JOHN DAY HIGHLANDS

CITY            SKY/WX      TMP DP  RH  WIND    PRES   REMARKS
#ANTONE         N/A         32  N/A N/A CALM    N/A
#BUCK CREEK DOT N/A         63  33  32  S2      N/A
#HORSE RIDGE DO N/A         62  21  20  N7      N/A
#KEYES SMT DOT  N/A         56  24  29  E2      N/A
#PAULINA SCHOOL N/A         63  33  32  NE1     30.18F
#PINE MTN OBS   N/A         52  23  32  S3      N/A
#PRAIRIE CITY   N/A         61  23  23  SW1     30.16F
#SENECA 9NW     N/A         58  28  32  S2      30.21F
$$

ORZ049-202210-
GRANDE RONDE VALLEY

CITY            SKY/WX      TMP DP  RH  WIND    PRES   REMARKS
LA GRANDE       PTCLDY      61  32  33  E5      30.21F
#COVE           N/A         59  31  34  N3      30.14F
#COVE SCHOOL    N/A         59  27  29  E1      30.19F
#COVE 6NW       N/A         59  31  34  CALM    30.27F
#ELGIN 3N       N/A         60  32  35  S2      29.93F
#ELGIN 1E       N/A         58  36  44  W3      N/A
#IMBLER SCHOOL  N/A         57  30  35  CALM    30.17F
#ISLAND CITY 4N N/A         58  40  51  S5      30.17F
#LADD CYN DOT   N/A         59  32  36  CALM    N/A
#LA GRANDE ELEM N/A         58  36  44  SE5     30.19F
#UNION 1S       N/A         60  32  35  CALM    30.13F
$$

ORZ050-202210-
WALLOWA COUNTY

CITY            SKY/WX      TMP DP  RH  WIND    PRES   REMARKS
JOSEPH AIRPORT  MOCLDY      55  27  34  CALM    30.23F
#ENTERPRISE HS  N/A         56  32  40  W3      30.20F
#IMNAHA SCHOOL  N/A         63  22  21  CALM    30.10F
#JOSEPH 3N      N/A         53  34  48  W2      30.22F
#LOSTINE        N/A         57  32  38  CALM    30.03F
#MT HOWARD 8000 N/A         38  20  48  SW1     30.25S
#PROMISE 1S     N/A         53  22  29  E7      30.33F
#SHEEP RDG 7000 N/A         38  27  64  CALM    30.32R
#WALLOWA SCHOOL N/A         57  29  34  CALM    31.14F



$$



USA.gov is the U.S. government's official web portal to all federal, state and local government web resources and services.